User: anonymous   Login
Location: Unspecified
(0.0000°N, 0.0000°E)
Time: 17:54:16
(UTC+00:00)
Language:

AEHF 1 (USA 214) - Orbit

View from above orbital plane
View from above orbital plane
View from above satellite
View from above satellite

Ground track
Ground track

The orbit data is extracted from the following two-line orbital elements,

1 36868U 10039A   15192.10590470 0.00000000  00000-0  00000-0 0    01
2 36868   1.5067 258.8300 0003453 165.4326 194.5918  1.00270000    07
Epoch (UTC): 11 July 2015 02:32:30
Eccentricity: 0.0003453
inclination: 1.5067°
perigee height: 35772 km
apogee height: 35801 km
right ascension of ascending node: 258.8300°
argument of perigee: 165.4326°
revolutions per day: 1.00270000
mean anomaly at epoch: 194.5918°
orbit number at epoch: 0

The dashed part of the orbit path shows where the satellite is in the earth's shadow,  

DLR